Content
SEND FEEDBACK

Daily
Averages
Monthly
Summary
United States of America

FORT WORTH - SUNSET TERRACE, TEXAS


Home > North America > United States > Texas
Elevation: 660 feet     Latitude: 32 44N     Longitude: 097 20W

WEATHER
 
SELECT A DAY
Number of Records: 191,236;   Date Range: 1/1/95 - 11/21/14
 
SHARE

PRINT THIS DATA

[ ← Previous Day ]
WEATHER ALMANAC - FEBRUARY 13, 2013
[ Next Day → ]
[ °C ]   °F
Weather ElementAverageHighLow
Temperature44 °F57 °F (3:53 pm)37 °F (6:53 am)
Dewpoint34.5 °F37 °F (1:53 am)30.9 °F (4:53 pm)
Humidity71.9 %93 % (1:53 am)37 % (4:53 pm)
Barometer30.08 in30.16 in (9:53 am)30.02 in (4:53 pm)
Wind Speed7.2 mph17.3 mph (3:20 am)
Wind Gust28.8 mph (3:20 am)
Weather ElementAverage
Visibility10 mi
Wind DirectionSSW (214.1 °)

Weather ElementTotal
Precipitation---
Heating Degree Days18 (Base 65)
Averaged from 27 records on February 13, 2013
WEATHER CONDITIONS BREAKOUT
WIND DIRECTION BREAKOUT
WEATHER BY HOUR - FEBRUARY 13, 2013
[ °C ]   °F
Local TimeTemperatureDewpointHumidityBarometerVisibilityWind DirectionWind SpeedGust SpeedPrecipitationEventsConditions
1:53 AM39.0 °F37.0 °F93 %30.08 in10.0 miNW (320°)10.4 mph21.9 mphOvercast
2:40 AM39.2 °F35.6 °F87 %30.07 in10.0 miNW (320°)16.1 mph21.9 mphOvercast
2:53 AM39.0 °F36.0 °F89 %30.08 in10.0 miWNW (300°)12.7 mphOvercast
3:20 AM37.4 °F33.8 °F87 %30.07 in10.0 miNW (320°)17.3 mph28.8 mphOvercast
3:48 AM37.4 °F35.6 °F93 %30.08 in10.0 miNW (320°)11.5 mphOvercast
3:53 AM37.9 °F35.1 °F89 %30.09 in10.0 miNW (320°)12.7 mphOvercast
4:53 AM37.9 °F35.1 °F89 %30.09 in10.0 miNNW (330°)12.7 mphOvercast
5:53 AM37.9 °F35.1 °F89 %30.11 in10.0 miNNW (330°)10.4 mphOvercast
6:53 AM37.0 °F34.0 °F89 %30.12 in10.0 miNorth (350°)10.4 mphOvercast
7:53 AM37.0 °F34.0 °F89 %30.13 in10.0 miNNW (330°)6.9 mphOvercast
8:53 AM37.9 °F35.1 °F89 %30.15 in10.0 miWNW (300°)9.2 mphMostly Cloudy
9:08 AM39.2 °F35.6 °F87 %30.15 in10.0 miNW (310°)5.8 mphScattered Clouds
9:53 AM42.1 °F35.1 °F76 %30.16 in10.0 miNW (320°)8.1 mphPartly Cloudy
10:53 AM44.1 °F36.0 °F73 %30.16 in10.0 miCalmClear
11:53 AM46.9 °F36.0 °F66 %30.14 in10.0 miVariable3.5 mphClear
12:53 PM51.1 °F35.1 °F54 %30.11 in10.0 miCalmClear
1:53 PM53.1 °F34.0 °F48 %30.06 in10.0 miCalmClear
2:53 PM54.0 °F32.0 °F43 %30.04 in10.0 miCalmClear
3:53 PM57.0 °F33.1 °F40 %30.03 in10.0 miSW (230°)4.6 mphClear
4:53 PM57.0 °F30.9 °F37 %30.02 in10.0 miSW (230°)4.6 mphClear
5:53 PM53.1 °F33.1 °F47 %30.02 in10.0 miSSE (160°)5.8 mphClear
6:53 PM48.9 °F33.1 °F54 %30.02 in10.0 miSE (140°)6.9 mphClear
7:53 PM46.9 °F33.1 °F59 %30.03 in10.0 miSSE (150°)5.8 mphClear
8:53 PM46.0 °F34.0 °F63 %30.04 in10.0 miSSE (150°)5.8 mphClear
9:53 PM45.0 °F35.1 °F68 %30.04 in10.0 miSouth (170°)4.6 mphClear
10:53 PM44.1 °F34.0 °F68 %30.05 in10.0 miSSW (200°)3.5 mphClear
11:53 PM43.0 °F35.1 °F74 %30.05 in10.0 miSouth (180°)4.6 mphClear
Hourly data recorded from KFTW, located miles away from Fort Worth - Sunset Terrace, Texas







STORIES FROM OUR PARTNERS